Regional Weather Roundup
Issued by NWS

Home | Current Version | Previous Version | Graphics & Text | Print | Product List | Glossary On
Versions: 1 2 3 4 5 6 7 8 9 10 11 12 13 14 15 16 17 18 19 20 21 22 23 24 25 26 27 28 29 30 31 32 33 34 35 36 37 38 39 40 41 42 43 44 45 46 47 48 49 50
000
ASUS43 KIND 202209
RWRIN

WEATHER ROUNDUP FOR INDIANA
NATIONAL WEATHER SERVICE INDIANAPOLIS IN
600 PM EDT MON APR 20 2015

NOTE: "FAIR" INDICATES FEW OR NO CLOUDS BELOW 12,000 FEET WITH NO
SIGNIFICANT WEATHER AND/OR OBSTRUCTIONS TO VISIBILITY.

* - STATION DOES NOT REPORT WEATHER SUCH AS PRECIPITATION OR FOG.

+ - STATION NOT QUALITY CONTROLLED BY THE NATIONAL WEATHER SERVICE.
    USE DATA WITH CAUTION...ESPECIALLY DEWPOINT AND RELATIVE
    HUMIDITY OBSERVATIONS.

INZ001>003-010>013-019-020-202300-
NORTHWEST INDIANA

CITY           SKY/WX    TMP DP  RH WIND       PRES   REMARKS
GARY /AIRPORT/ CLOUDY    50  30  46 W28G44    29.55R
KNOX *+        CLOUDY    48  21  34 W22G28    29.55R
LA PORTE +     CLOUDY    50  36  57 W18G33    29.54R
MICHIGAN CITY+ CLOUDY    48  32  53 W17G28    29.54R
MONTICELLO +   CLOUDY    49  38  66 W18G26    29.60R
RENSSELAER +   CLOUDY    50  37  62 W21G30    29.59R
VALPARAISO     PTSUNNY   49  34  56 W30G39    29.55R

$$

LMZ046-743>745-202300-
SOUTHERN LAKE MICHIGAN

STATION/POSITION TIME  TEMP    WIND        PRES    WAVE
                       AIR SEA DIR/SP/G            HT
                 (UTC) (F)     (DEG/KT/KT) (MB)    (FT)
BURNS HARBOR     2200   48     260/ 25/ 30 1000.7R
MICHIGAN CITY    2200   46     230/ 26/ 32   N/A
5NW MICH CITY    2200   46 44  270/ 17/ 25   N/A     6

$$

INZ004-005-014>016-021>024-202300-
NORTH CENTRAL INDIANA

CITY           SKY/WX    TMP DP  RH WIND       PRES   REMARKS
ELKHART        CLOUDY    48  36  61 W17G25    29.53R
GOSHEN         CLOUDY    49  39  68 W24G30    29.53R
LOGANSPORT +   CLOUDY    48  37  66 W22G36    29.61R
PERU/GRISSOM   PTSUNNY   49  39  69 W21G36    29.59R
ROCHESTER +    PTSUNNY   52  37  58 W21G29    29.57R
SOUTH BEND     CLOUDY    49  36  61 W21G28    29.54R
WARSAW +       DRIZZLE   46  39  76 W20G28    29.54R

$$

INZ006>009-017-018-025>027-202300-
NORTHEAST INDIANA

CITY           SKY/WX    TMP DP  RH WIND       PRES   REMARKS
ANGOLA *+      CLOUDY    46  41  81 W22G30    29.51R
AUBURN +       CLOUDY    48  37  66 W16G24    29.54R
FORT WAYNE     CLOUDY    49  42  77 W23G31    29.56R
HUNTINGTON +   CLOUDY    49  38  65 W18G31    29.57R

$$

INZ028-029-035-036-043>045-051>053-202300-
WEST CENTRAL INDIANA

CITY           SKY/WX    TMP DP  RH WIND       PRES   REMARKS
CRAWFORDSVL +  CLOUDY    48  31  52 W16G33    29.65R
GREENCASTLE +  CLOUDY    50  32  50 W18G29    29.67R
LAFAYETTE      CLOUDY    50  35  56 W20G33    29.61R
TERRE HAUTE    CLOUDY    52  36  54 W23G29    29.70R

$$

INZ030>032-037>040-046>048-054>057-064-065-202300-
CENTRAL INDIANA

CITY           SKY/WX    TMP DP  RH WIND       PRES   REMARKS
CP ATTERBURY + CLOUDY    54  36  50 W17G26    29.67R
COLUMBUS       MOSUNNY   55  32  41 W24G37    29.66R
FRANKFORT +    MOSUNNY   50  39  66 SW25G33   29.64R
GREENWOOD *+   CLOUDY    52  34  50 W23G31    29.65R
INDIANAPOLIS   CLOUDY    52  36  54 W18G32    29.63R
-EAGLE CREEK   CLOUDY    51  36  56 W14G32    29.64R
KOKOMO *+      MOSUNNY   50  39  66 W26G33    29.61R
MARION +       CLOUDY    49  41  73 W25G33    29.61R
MT COMFORT *+  MOSUNNY   52  28  40 W24G35    29.64R
SHELBYVILLE    CLOUDY    56  38  50 W22G33    29.64R
ZIONSVILLE +   CLOUDY    51  36  55 W22G30    29.64R

$$

INZ033-034-041-042-049-050-058-059-202300-
EAST CENTRAL INDIANA

CITY           SKY/WX    TMP DP  RH WIND       PRES   REMARKS
MUNCIE         LGT RAIN  50  40  68 W25G36    29.61R

$$

INZ060-061-067>069-081>083-085>088-202300-
SOUTHWEST INDIANA

CITY           SKY/WX    TMP DP  RH WIND       PRES   REMARKS
EVANSVILLE     CLOUDY    59  38  45 W16G25    29.74R
HUNTINGBURG *+ CLOUDY    57  39  51 W22G28    29.73R
WASHINGTON +   CLOUDY    54  39  55 W13       29.71R

$$

INZ062-063-066-070>080-084-089>092-202300-
SOUTH CENTRAL AND SOUTHEAST INDIANA

CITY           SKY/WX    TMP DP  RH WIND       PRES   REMARKS
BEDFORD +      PTSUNNY   55  34  44 W9G25     29.68R
BLOOMINGTON    CLOUDY    54  37  52 W13G22    29.68R
MADISON *+     CLOUDY    55  36  47 W13G26    29.68R
NORTH VERNON + PTSUNNY   57  39  51 W21G29    29.66R

$$




USA.gov is the U.S. government's official web portal to all federal, state and local government web resources and services.